sat.trackr.live / text

‹ back to catalog

STARLINK-34029

NORAD 63805 · 2025-092B

PAYLOAD ACTIVE UNKNOWN

§ Identity

Operator
Country
US
Launch date
2025-05-04
Launch site
AFETR
Launch vehicle
Mass (kg)
RCS (m²)

Purposes: comms

External: N2YO · Heavens-Above · Gunter

§ Orbital elements

Epoch: 2026-09-20T00:55:22.114560Z

Period
94.27 min
Inclination
43.0024°
Eccentricity
0.0001575
Mean motion
15.27593858 rev/d
Perigee alt
481.9 km
Apogee alt
484.1 km
Semi-major
6,861.1 km
B*
4.4667e-4
RAAN
155.3221°
Arg perigee
269.8252°
Mean anomaly
90.2419°
Rev number
7,833

§ Raw data

STARLINK-340291 63805U 25092B   26263.03845040  .00012055  00000+0  44667-3 0  99952 63805  43.0024 155.3221 0001575 269.8252  90.2419 15.27593858 78337

JSON: /api/v1/satellites/63805 · /tle

For live sub-satellite position, see the globe view (requires WebGL).

§ Visibility from observer

Set your observer location to see the next 7 days of passes ≥ 10°. The values pass through the URL so the page stays shareable.

No JS? Fill the form by hand. The geolocation button needs JavaScript.